Theta_e
299 300 301 302 301 301 302 302 303 303 303 300 297 298 292 294 290 303 301 301 299 290 284 290 288 286 289 294 291 293 292 291 292 289 291 289 290 289 290 289 289 291 290 291 291 292 289 290 288 291 292 292 297 297 297 296 295 293 290 291 293 303 279 282 284 284 286 289 290 292 295 293 292 291 289 287 286 283 279 275 279 279 280 278 278 281 285
300 301 301 301 300 301 302 302 303 303 303 299 299 294 293 291 290 297 300 302 299 289 280 282 282 286 290 292 290 292 290 289 288 287 288 290 289 290 290 290 291 291 291 292 291 293 287 292 290 290 292 292 297 297 298 298 296 291 293 288 296 284 282 285 279 277 281 281 283 286 290 292 287 285 286 288 287 286 283 283 281 281 280 278 279 276 283
300 301 301 300 300 301 302 302 302 303 303 303 298 292 292 290 298 298 298 300 298 290 287 283 279 286 291 291 288 289 293 294 292 289 289 291 289 291 288 289 290 292 292 292 294 295 293 288 293 292 293 293 297 297 300 302 299 304 303 307 295 286 280 278 276 273 270 272 274 277 283 285 286 287 289 290 288 284 284 282 279 276 280 280 280 281 287
301 301 300 300 301 301 301 302 302 303 303 303 299 295 293 288 284 290 295 296 297 296 296 293 290 286 290 285 289 293 289 293 294 293 291 290 291 290 290 289 291 292 294 291 291 292 294 292 290 290 290 291 295 296 298 303 302 307 307 301 294 285 286 282 279 280 280 277 277 283 286 284 283 285 288 288 289 288 283 280 277 278 280 280 285 287 286
301 301 300 300 301 301 301 302 302 303 303 303 299 295 294 294 286 286 285 293 294 292 294 293 293 287 291 283 290 288 289 290 291 290 289 292 290 291 291 290 289 289 292 289 290 291 293 294 293 290 291 293 294 295 297 297 306 308 303 301 289 285 285 288 288 287 287 288 288 289 290 287 288 286 287 288 287 287 285 277 280 283 285 278 287 289 287
301 300 300 300 301 301 302 302 303 303 303 304 300 292 295 286 287 294 295 289 284 286 286 293 292 296 295 289 291 289 289 287 283 289 291 290 291 288 289 290 290 288 290 289 287 289 288 289 287 292 290 291 292 293 296 294 300 303 296 296 289 284 283 289 289 287 288 288 288 290 289 290 290 289 289 287 288 288 285 286 287 282 277 282 288 289 286
300 300 299 300 301 301 302 302 302 303 302 303 298 292 296 290 292 294 297 289 290 289 290 294 293 293 295 288 290 288 288 286 288 287 288 289 289 288 281 285 288 290 289 289 286 286 286 285 287 288 288 288 287 288 293 295 295 297 294 293 290 290 286 289 289 286 287 287 287 289 288 288 289 288 289 289 289 288 288 287 289 289 287 290 289 287 285
300 300 300 300 301 302 302 302 303 303 302 302 297 295 293 293 292 291 295 293 290 292 292 293 292 288 294 287 289 289 287 286 287 287 287 283 288 289 286 286 289 290 290 288 286 288 289 290 286 289 288 288 286 287 287 291 294 294 292 293 292 291 286 291 287 286 286 287 288 288 287 288 286 288 288 289 289 288 289 289 288 289 288 287 286 285 284
299 300 300 300 300 301 302 303 303 303 303 298 296 297 300 297 300 301 295 287 287 292 291 291 290 285 286 287 288 288 288 287 289 287 289 288 288 289 287 288 289 289 289 289 288 290 290 291 292 290 289 289 290 288 291 292 290 289 289 289 290 291 287 290 287 284 284 287 285 285 287 287 285 285 286 286 286 284 285 285 288 287 284 286 286 283 283
299 299 300 300 301 302 302 302 303 303 303 297 296 294 298 299 303 303 297 286 291 289 290 288 288 283 286 289 287 289 289 290 289 287 289 291 289 289 289 289 290 286 288 287 289 291 290 290 290 290 290 291 290 291 291 291 290 287 289 288 287 287 288 285 283 283 282 285 283 282 282 282 282 283 286 287 287 288 288 288 289 288 289 286 284 283 287
299 299 300 300 301 302 302 302 303 303 301 296 294 293 295 294 293 296 295 289 285 287 288 286 286 290 287 292 289 291 289 289 288 287 285 289 290 290 290 290 288 285 287 290 293 292 292 293 293 294 294 294 293 292 293 293 291 289 288 285 285 289 288 284 284 283 284 286 284 284 279 274 278 287 290 290 286 287 284 284 286 288 289 286 288 287 289
300 300 300 300 301 301 302 302 303 303 302 300 299 294 297 298 296 297 289 285 285 287 287 284 285 288 289 290 290 289 288 289 289 290 288 287 290 290 289 287 287 285 292 292 291 291 292 292 293 295 293 293 293 293 292 291 291 292 289 290 286 286 283 280 283 285 283 283 283 280 274 275 286 291 291 291 290 289 287 287 288 288 289 289 288 288 288
299 299 300 300 300 301 302 302 303 303 303 302 300 293 298 300 295 294 293 289 286 286 282 285 288 288 289 289 288 287 288 288 289 290 288 288 288 288 288 288 287 290 292 290 290 288 286 286 286 285 286 286 291 292 290 289 289 291 292 293 290 283 285 278 280 281 284 282 280 276 271 284 288 289 290 292 291 289 288 286 288 289 289 289 287 287 287
299 299 300 300 300 301 301 302 302 303 304 304 299 298 299 299 294 293 291 284 283 284 287 285 286 286 287 287 287 287 288 288 286 287 288 287 286 287 289 290 290 290 289 289 287 284 283 279 279 277 282 281 282 285 286 287 288 287 288 289 290 288 283 284 281 283 282 281 279 278 284 284 285 285 287 287 284 285 284 281 284 289 290 289 287 287 287
299 300 300 300 300 301 302 302 303 303 304 304 301 300 299 299 296 295 297 292 286 286 284 282 284 286 286 286 285 285 283 283 287 284 285 287 288 290 290 291 289 289 289 287 283 282 280 278 278 276 276 274 273 279 282 283 285 288 287 287 287 286 288 281 282 278 281 280 278 279 278 276 281 287 290 292 291 290 288 286 283 289 290 290 288 286 287
300 300 300 300 301 301 302 302 303 303 304 304 300 300 300 301 299 297 295 292 286 283 284 288 288 287 285 285 286 286 281 278 281 280 281 284 286 287 291 289 290 290 289 285 280 279 276 280 273 271 271 273 279 279 279 281 282 287 286 288 289 287 287 284 283 279 279 277 277 277 275 277 283 286 290 291 291 290 288 284 281 287 290 291 289 287 287
300 300 300 301 301 302 302 303 303 304 304 304 300 299 298 301 298 297 294 293 289 284 286 287 287 286 281 283 286 285 281 282 279 281 279 282 285 284 288 289 288 291 286 282 280 276 276 274 268 275 277 273 277 277 278 276 276 281 284 284 285 283 278 280 280 275 272 275 274 275 279 279 286 288 289 290 291 291 287 276 278 286 290 291 290 288 288
300 300 300 301 301 302 302 303 304 304 304 305 302 299 298 302 301 299 296 291 282 284 287 288 288 283 284 283 283 285 286 285 285 282 281 283 283 285 286 288 288 290 290 282 279 276 273 270 274 271 275 282 278 280 276 277 275 275 278 277 278 277 276 276 275 271 275 277 277 279 280 286 288 289 291 292 292 289 278 275 281 288 289 291 291 289 289
300 300 301 301 302 302 303 303 304 304 304 305 303 301 300 301 301 300 297 291 282 282 288 288 290 288 290 290 288 288 289 288 284 283 281 280 286 289 289 290 289 287 286 279 279 275 273 278 278 277 276 278 282 278 279 275 276 280 279 277 278 277 273 274 272 275 274 276 277 277 280 286 290 292 293 293 289 279 276 283 290 289 288 290 291 290 290
300 300 301 301 302 302 303 304 304 304 304 305 303 297 300 301 301 300 295 287 281 285 287 289 291 290 291 291 287 288 288 286 283 282 276 280 285 289 284 281 286 285 282 280 279 278 275 277 279 278 274 276 280 280 279 279 283 281 279 280 277 279 278 275 273 274 274 270 275 274 273 283 291 292 291 290 284 282 287 288 289 290 289 289 289 290 289
300 300 301 301 302 303 303 304 304 305 305 305 304 298 297 299 300 300 297 290 285 281 286 289 290 290 291 292 294 293 289 289 285 284 282 284 287 281 275 276 283 283 283 276 279 279 275 277 280 278 282 281 283 282 277 276 279 284 282 281 282 285 278 276 277 279 275 269 269 273 281 286 291 289 284 286 287 289 289 289 287 290 290 289 289 289 290
300 300 301 301 302 303 303 304 305 305 305 305 304 299 295 298 300 301 301 295 286 284 288 288 289 289 292 295 295 295 296 295 294 290 287 285 286 286 282 282 282 284 285 281 282 280 282 280 282 275 277 278 281 275 276 270 272 278 284 284 278 285 280 281 279 282 275 274 278 285 289 289 290 289 287 288 289 290 290 290 289 289 289 291 289 289 290
300 300 300 301 302 303 303 304 305 305 305 305 304 298 296 294 296 301 300 293 290 289 289 287 287 289 293 293 294 295 295 296 295 291 291 289 286 286 287 287 289 289 287 283 282 282 281 280 276 280 279 279 278 278 280 277 275 282 281 287 286 289 289 289 286 284 288 289 289 290 289 289 289 290 290 290 290 290 290 289 288 289 289 289 289 290 290
300 300 300 301 302 303 303 304 305 305 305 306 303 297 297 297 299 298 292 287 283 286 289 289 287 284 285 289 291 292 294 293 295 296 293 293 285 285 287 288 290 289 289 288 285 286 281 280 281 281 278 280 280 275 276 278 282 285 284 284 287 286 285 286 284 286 283 278 288 287 287 289 289 289 290 291 291 289 289 288 288 288 288 289 289 290 290
300 300 300 301 302 303 303 304 304 305 305 305 303 301 300 295 295 292 290 288 284 279 282 282 284 291 292 291 291 291 292 294 298 295 293 292 292 288 288 295 293 290 288 289 286 286 281 281 281 279 279 282 282 279 283 282 282 287 282 284 284 283 289 286 286 285 283 282 287 288 289 290 290 289 288 288 288 289 289 289 289 289 289 289 288 289 288
300 300 301 301 302 303 303 304 304 305 305 305 303 295 294 295 295 291 291 289 284 281 282 280 287 293 290 294 292 292 294 295 295 298 297 296 296 298 296 292 291 290 288 287 290 285 281 281 279 278 280 281 283 278 278 282 283 282 283 283 287 287 289 281 286 283 285 288 288 288 289 288 289 290 289 288 288 288 288 289 289 289 288 288 287 287 288
300 300 301 301 302 303 303 304 304 304 304 305 301 296 296 294 296 296 296 288 285 284 281 284 283 288 292 292 293 293 293 294 295 296 295 295 295 294 294 292 291 290 290 288 284 283 282 281 280 282 282 282 282 282 283 285 282 279 278 284 287 284 280 286 286 281 281 282 284 287 282 281 285 287 288 289 289 289 288 288 288 288 287 287 286 285 284
300 301 301 302 302 303 303 304 304 304 304 304 300 295 293 294 295 296 291 290 288 285 282 280 283 288 290 294 294 293 294 294 295 294 293 293 293 293 292 291 289 288 283 285 285 285 283 284 284 279 278 282 282 282 281 281 281 281 281 282 284 282 284 284 282 282 281 286 288 286 288 287 286 287 288 289 288 288 288 287 287 286 286 286 286 286 285
300 301 301 302 302 303 303 304 304 303 304 302 294 292 291 291 294 297 299 294 288 284 280 282 285 288 286 288 293 293 294 294 294 293 292 292 292 292 291 290 289 286 287 284 283 281 280 279 279 282 283 285 283 280 278 277 274 275 279 283 284 284 286 283 284 286 287 289 285 288 288 286 286 287 288 288 288 289 288 287 287 287 286 286 287 286 286
300 301 302 302 303 303 304 304 304 303 304 294 290 286 284 290 290 297 300 299 290 285 283 281 282 283 287 290 291 291 292 294 294 293 292 291 291 291 290 290 289 288 287 285 285 282 281 281 277 281 285 285 281 276 273 276 274 279 282 283 285 285 286 287 288 288 286 287 287 288 288 288 288 289 289 289 290 289 288 287 287 286 285 286 286 284 284
301 302 302 303 303 303 304 304 304 304 302 291 287 283 280 283 291 296 301 299 291 287 281 283 283 281 284 290 289 291 290 292 290 291 290 288 288 288 288 290 288 288 286 284 283 281 279 279 277 282 284 288 278 274 278 276 275 279 282 283 284 286 286 287 288 288 288 288 289 289 288 287 287 288 287 286 287 288 288 287 289 291 288 287 284 284 282
302 302 302 303 303 304 304 304 304 303 297 293 290 289 286 289 291 297 302 300 293 289 283 281 281 280 279 283 289 290 291 291 288 287 288 289 290 288 289 288 287 288 286 281 281 281 281 277 279 282 283 285 282 276 278 278 277 278 283 283 285 286 287 287 288 288 289 290 289 288 287 286 287 287 286 287 287 287 288 287 286 287 291 287 284 283 283
302 302 303 303 303 304 304 305 304 303 295 298 301 302 301 302 304 303 302 295 289 284 280 279 277 279 279 285 288 290 291 287 288 284 288 288 287 285 285 285 284 287 293 286 281 279 281 276 278 283 284 280 275 274 278 275 279 282 283 285 285 287 287 287 288 288 289 288 288 285 284 285 287 285 287 286 285 286 286 286 285 286 286 286 286 286 286
302 302 303 303 303 304 304 304 304 303 300 291 291 291 295 303 303 303 295 289 287 283 281 281 278 278 280 283 286 288 289 284 284 281 283 288 285 284 282 282 285 283 285 283 280 280 280 282 281 277 278 278 275 275 274 280 281 283 284 285 286 286 287 288 288 287 288 287 286 286 286 286 286 286 287 287 285 285 286 285 286 287 285 285 286 284 284
302 302 303 303 304 304 304 303 295 296 292 291 292 290 293 303 304 303 299 289 285 281 280 280 277 275 279 277 275 285 287 285 283 282 282 286 285 286 282 282 281 282 283 283 279 275 277 280 280 279 278 276 274 273 273 280 280 281 283 284 284 286 286 286 285 287 286 285 287 286 287 287 288 287 286 285 285 285 286 286 285 286 285 285 285 284 284
302 303 303 304 304 302 295 298 293 290 286 287 289 298 303 305 304 296 293 291 288 278 275 277 275 276 274 274 277 283 288 283 282 281 283 279 282 284 280 280 280 280 281 278 277 276 277 283 279 276 271 274 274 275 281 282 282 283 284 284 285 287 287 287 285 284 283 284 285 285 286 286 286 285 285 285 284 284 285 285 284 285 285 285 283 283 282
302 302 303 302 293 293 288 288 291 292 293 294 299 303 304 303 297 294 291 291 292 289 281 277 279 279 277 278 276 279 283 281 280 278 280 280 279 278 275 274 278 280 275 275 275 277 280 283 276 272 272 273 278 280 283 284 284 284 284 285 285 285 285 285 285 284 284 284 285 285 285 284 283 282 284 284 284 283 284 285 285 285 286 286 284 283 284
302 301 291 290 286 283 285 286 290 294 302 302 301 293 291 289 286 283 283 282 286 289 281 280 277 282 279 280 281 285 282 279 279 280 279 277 278 280 277 279 279 279 273 273 278 282 275 275 271 272 276 277 279 281 283 284 285 285 285 285 284 285 285 285 285 285 283 282 281 281 282 282 282 282 285 284 283 284 286 286 285 286 286 285 284 284 283
298 290 288 284 285 284 285 290 296 301 297 296 290 287 285 282 282 283 281 279 281 283 280 281 281 279 278 280 283 286 285 279 273 275 277 281 278 279 276 276 278 275 273 272 278 281 274 272 268 268 274 278 282 283 283 283 284 283 286 285 285 285 286 285 287 287 285 285 285 284 285 284 284 283 283 283 282 283 283 283 283 284 283 283 282 282 282
290 288 285 281 283 286 291 294 298 294 291 287 282 282 282 281 282 281 278 281 280 277 279 281 280 278 280 282 282 283 285 282 275 277 275 279 281 278 278 275 277 274 271 269 276 277 272 271 269 268 274 277 282 282 281 283 285 283 284 284 284 285 286 286 286 288 288 286 286 286 286 287 287 286 284 284 284 284 283 282 283 283 283 284 283 284 284
287 285 283 282 286 287 290 292 290 285 283 282 281 280 279 280 280 279 277 274 277 280 280 282 283 283 284 280 280 280 285 284 280 279 277 278 281 280 276 276 276 273 270 273 277 272 269 269 268 270 277 278 279 281 281 282 283 283 282 283 285 285 286 286 286 285 286 285 284 284 284 285 286 286 285 285 285 285 284 284 284 284 282 283 283 283 282
288 287 288 291 291 293 291 287 283 284 281 281 279 277 276 278 279 278 278 278 278 276 284 282 282 282 284 284 285 281 284 284 279 276 277 279 280 275 276 274 273 270 270 274 276 269 269 270 270 270 272 279 279 280 282 283 282 283 283 283 285 285 285 285 285 284 286 287 286 286 285 285 284 285 285 285 285 285 285 284 283 282 284 283 282 282 282
298 297 295 291 287 282 281 282 281 280 279 277 274 275 275 275 278 277 277 276 277 280 283 285 283 284 287 284 284 284 283 285 286 280 276 278 279 275 273 272 272 272 276 275 271 268 267 267 267 274 279 281 281 282 283 284 284 284 284 284 285 286 286 286 286 286 284 287 287 286 285 285 285 285 285 286 285 284 283 283 285 285 282 283 283 283 282
294 294 287 280 282 282 282 280 282 280 276 274 274 274 273 274 275 274 276 279 281 282 283 283 283 283 282 283 281 282 281 284 282 277 277 275 275 273 273 273 274 275 277 273 271 272 269 267 275 278 280 281 282 281 282 282 282 282 282 283 283 284 284 284 284 284 283 283 284 284 284 284 283 283 284 285 287 287 285 283 283 282 281 282 283 283 281
287 281 277 279 277 279 280 275 277 276 275 275 275 272 272 271 270 269 275 276 282 285 281 281 283 284 282 283 281 280 281 282 279 278 278 275 273 273 272 274 273 270 273 271 268 268 271 271 276 278 280 281 282 282 281 282 283 284 283 282 282 283 284 285 284 284 284 284 284 284 284 284 284 284 284 285 285 287 286 286 284 283 282 283 283 284 282
283 279 276 276 275 276 276 273 272 275 275 275 274 275 276 276 277 277 279 279 281 282 285 283 282 283 281 280 281 281 275 274 276 277 276 272 273 274 276 275 272 269 269 266 268 268 270 274 278 281 283 283 283 282 282 283 283 283 284 284 283 283 284 285 284 284 284 284 283 285 284 284 285 284 284 284 284 285 285 285 284 285 283 283 283 284 282
283 280 276 275 274 275 277 275 273 275 276 277 277 278 279 280 280 280 282 281 282 283 283 281 282 283 281 280 279 280 276 275 276 277 276 277 274 276 277 275 272 268 268 267 265 262 266 274 279 283 283 283 283 282 283 283 283 284 285 284 283 283 283 284 284 284 283 283 283 284 284 284 284 284 284 284 284 284 284 284 284 283 285 286 284 283 282
282 280 278 276 273 275 276 276 276 278 278 280 279 278 278 279 282 283 282 281 284 284 285 283 284 282 282 280 278 277 276 276 276 278 276 276 276 271 268 269 268 266 266 267 267 271 273 276 281 283 284 284 284 283 283 283 283 283 284 284 284 283 283 284 283 283 283 284 284 284 283 283 284 284 286 285 284 283 283 284 283 283 283 283 283 282 283
282 277 278 273 274 274 274 274 279 280 277 276 276 278 280 281 280 279 281 282 285 285 283 282 279 278 279 276 274 279 278 276 275 276 276 273 271 271 269 267 266 270 271 269 269 273 277 280 283 284 284 284 284 285 284 284 284 284 285 285 284 284 284 284 284 283 283 284 284 284 284 284 284 284 283 284 285 285 283 283 283 283 283 285 284 284 283
284 279 279 278 278 275 275 277 279 276 276 276 279 280 279 280 279 280 280 284 282 282 282 283 280 279 278 276 276 273 276 273 274 275 271 271 268 268 267 267 265 269 269 273 273 276 277 280 284 284 284 284 284 285 284 284 284 285 285 285 285 284 285 284 283 283 284 284 285 285 284 284 284 284 285 286 286 284 283 283 283 283 283 283 284 283 284
280 280 278 277 278 275 277 275 273 275 276 277 277 279 278 280 280 283 283 283 283 281 279 279 277 275 277 274 272 272 275 277 277 274 272 271 270 270 269 270 268 271 274 278 278 277 279 283 285 285 284 285 285 285 285 285 285 285 285 285 285 285 284 284 285 284 284 284 284 283 284 285 286 286 284 284 284 285 284 284 284 283 283 282 282 283 283
277 277 279 279 279 277 279 279 278 279 280 280 279 278 280 282 281 283 284 286 284 284 279 276 276 275 272 273 273 275 278 273 272 272 273 272 272 270 267 266 269 275 278 278 279 278 280 283 286 286 286 286 285 285 285 286 285 285 285 285 285 285 284 284 285 284 284 283 285 286 286 284 283 282 282 284 284 284 285 285 285 283 283 282 282 282 283
Wind_Speed
7 8 9 9 9 9 10 10 10 10 11 4 4 3 3 1 2 2 9 7 4 1 2 1 1 1 3 3 4 2 3 6 5 7 11 8 7 4 3 3 2 1 2 2 4 5 4 2 2 2 4 2 0 4 1 6 6 5 1 3 1 6 3 5 2 2 3 4 3 2 2 2 8 7 4 3 1 1 6 3 7 7 3 3 1 2 2
8 9 10 9 8 9 10 10 11 11 10 5 4 3 2 2 1 3 3 7 2 1 3 2 1 3 3 2 2 1 5 6 10 8 9 2 3 0 1 2 1 1 1 5 5 3 5 3 3 3 0 3 2 5 3 4 2 2 8 6 5 2 1 7 2 2 4 4 4 3 3 6 5 2 3 2 0 3 2 6 2 7 4 5 7 6 4
9 9 10 9 8 9 10 11 12 11 11 8 4 3 2 2 1 2 2 3 3 1 1 4 3 2 2 1 2 5 4 7 13 11 9 3 3 1 2 0 2 3 1 4 4 3 8 2 3 3 1 3 1 6 8 1 3 1 3 7 6 8 1 3 6 5 4 2 1 2 2 1 0 2 4 6 5 3 2 4 1 4 3 2 4 3 2
10 10 10 9 9 10 11 11 11 12 11 10 4 3 1 2 4 1 2 2 3 3 1 1 2 1 0 1 3 1 7 6 6 8 6 3 2 1 1 2 3 4 8 7 6 6 5 6 4 1 1 1 2 3 6 5 4 8 12 5 7 5 3 4 4 8 9 4 2 1 1 3 4 2 9 7 4 3 2 4 5 6 5 3 2 6 10
10 10 9 9 9 10 12 12 12 10 10 11 2 2 2 1 2 3 3 1 4 3 1 1 1 1 1 1 0 3 6 4 6 6 1 1 3 1 4 2 3 3 10 4 8 4 11 11 9 2 4 0 1 5 3 4 6 11 6 4 6 5 7 6 10 13 6 3 6 4 4 7 5 5 6 8 7 3 4 4 4 6 11 0 1 11 9
11 11 10 10 11 11 12 13 12 11 10 10 1 2 3 1 2 1 2 2 3 1 4 5 0 1 2 3 1 4 4 3 3 2 1 1 3 1 5 9 6 2 6 5 6 2 6 3 4 1 3 2 3 4 7 5 5 4 3 3 6 6 5 2 11 9 9 5 5 9 12 12 10 11 11 12 9 9 7 2 2 0 4 8 10 12 9
12 11 10 9 11 12 12 13 13 10 11 4 2 2 1 2 1 3 1 0 1 2 1 4 4 2 2 2 1 4 4 4 1 0 4 5 6 3 3 6 7 5 3 4 5 1 8 3 2 1 2 2 2 2 1 3 6 5 3 5 2 8 6 3 9 12 10 8 6 5 14 8 12 13 13 11 13 12 10 8 4 5 6 11 15 12 10
11 11 10 10 11 12 13 14 14 12 12 2 2 3 2 1 1 2 3 2 2 0 1 2 4 2 3 1 5 3 2 1 2 3 4 1 3 3 9 3 8 8 8 6 4 1 3 9 6 2 4 1 1 1 2 2 2 5 3 1 4 7 2 7 0 6 7 7 6 8 9 11 14 11 11 11 10 11 10 9 10 14 13 13 14 13 9
11 10 10 10 10 12 13 14 14 13 11 0 1 2 3 2 3 3 2 2 0 1 2 4 4 1 1 3 6 2 2 3 3 4 1 1 1 3 8 5 10 9 13 12 8 2 6 7 6 6 4 6 2 3 1 2 3 3 3 2 2 6 6 1 0 6 3 2 6 8 12 15 15 12 10 9 6 7 5 4 4 1 9 11 13 8 5
11 10 10 10 11 12 14 14 14 13 11 2 3 3 4 4 3 4 1 1 3 0 1 3 4 2 6 6 4 0 1 1 2 6 5 7 4 1 4 5 12 5 13 8 3 1 3 5 4 4 5 7 5 5 4 2 2 2 2 0 5 2 9 6 3 9 2 2 0 2 3 5 7 6 5 7 6 6 6 7 8 6 4 11 8 4 5
11 10 11 11 12 13 14 15 14 13 6 5 3 1 2 4 5 4 3 1 2 0 3 2 2 2 2 4 0 0 1 1 2 7 1 3 3 4 1 6 9 5 6 2 0 2 5 7 7 7 12 12 11 6 8 13 8 2 5 4 3 5 10 6 2 5 5 5 1 2 3 2 1 2 5 2 2 5 9 5 6 6 4 2 4 9 8
12 11 11 12 12 13 14 14 14 13 6 2 1 1 1 3 4 2 2 1 1 0 2 4 6 2 0 1 2 1 3 5 4 2 8 0 1 2 3 5 5 6 0 1 3 3 2 3 6 12 12 13 15 17 17 14 11 6 2 9 6 8 6 5 2 6 6 2 3 4 0 0 3 2 2 6 8 12 15 11 10 10 11 14 13 10 9
12 12 12 12 12 13 13 13 13 13 9 3 1 1 2 3 3 2 2 0 0 1 2 1 1 1 1 6 8 4 3 4 5 7 4 3 3 5 2 2 3 1 0 4 5 6 5 6 6 5 5 5 9 15 18 15 12 9 8 7 12 6 9 4 5 3 4 3 2 4 2 2 4 4 5 5 6 4 11 11 9 7 7 8 11 9 9
12 13 13 13 13 13 12 12 13 12 11 5 0 1 1 1 1 1 1 1 1 2 3 3 6 4 4 6 6 3 4 7 4 5 5 3 4 4 4 2 1 1 4 6 8 4 5 6 5 5 5 6 4 6 4 5 11 11 9 7 4 11 5 5 6 2 5 3 4 5 4 5 4 5 2 2 2 1 2 5 3 4 1 5 10 10 9
13 13 14 14 14 13 13 13 13 13 11 7 1 2 3 2 2 2 0 0 0 2 1 3 2 2 2 1 2 6 6 2 7 4 2 2 4 1 0 1 2 1 1 4 3 6 3 3 3 3 2 4 1 0 2 3 3 8 6 4 7 2 7 4 8 1 3 7 6 3 0 3 6 1 1 0 0 1 2 6 3 3 5 7 9 10 10
14 14 15 15 15 15 15 15 14 13 11 10 2 2 4 4 3 1 2 1 1 5 4 1 2 1 2 2 1 5 3 3 1 1 4 4 1 2 1 3 3 2 6 7 3 5 2 3 2 3 1 1 1 2 0 2 2 3 6 8 10 10 10 7 9 5 5 3 5 3 4 2 1 6 1 0 1 3 2 5 2 1 2 7 8 10 8
15 15 16 16 16 16 16 15 15 14 12 10 3 3 3 3 5 4 2 1 1 2 2 1 1 2 3 3 4 6 2 4 2 5 2 2 2 2 3 3 2 6 3 5 6 3 4 6 2 4 0 1 1 2 1 3 2 1 5 9 12 10 5 6 8 5 1 5 3 3 1 2 2 1 0 1 1 2 0 1 2 4 0 7 8 9 9
15 17 17 17 17 17 17 16 16 16 13 11 6 5 5 4 5 3 1 2 1 2 3 2 1 2 4 2 2 1 2 2 5 2 4 1 1 2 3 3 3 3 2 4 1 6 3 2 3 2 2 1 1 1 3 2 3 1 1 1 2 5 4 6 6 4 5 6 1 2 1 1 1 1 1 2 3 1 2 3 3 4 3 5 7 8 7
17 17 17 17 17 18 17 17 17 16 15 12 6 5 4 5 6 5 2 1 1 3 7 2 1 3 1 2 3 1 0 1 5 5 1 3 1 1 1 0 1 0 7 5 4 3 3 0 0 2 4 1 2 2 0 4 1 1 1 1 3 3 3 1 3 6 4 1 4 2 2 1 1 1 1 2 2 2 4 2 3 8 6 4 7 9 6
17 18 17 18 18 18 17 17 17 17 15 13 6 5 5 4 6 9 4 1 0 2 4 3 2 4 0 1 2 1 0 3 2 7 4 3 2 0 1 2 3 3 2 4 3 1 3 1 0 1 3 2 1 4 5 1 1 2 2 1 2 0 3 2 3 2 2 3 4 1 1 1 3 0 1 2 1 1 4 8 5 5 6 7 5 6 6
17 17 18 18 18 18 18 17 17 16 15 13 6 3 4 0 5 7 1 2 1 3 4 2 0 1 1 3 1 2 3 2 2 3 4 3 1 3 2 2 1 1 1 1 3 0 2 1 0 1 1 4 1 1 5 4 3 1 1 1 3 0 4 1 1 3 4 2 2 2 0 1 2 1 3 0 1 7 8 8 8 5 6 7 7 5 6
18 18 18 19 19 19 19 18 18 16 16 14 6 1 1 1 3 4 4 1 1 0 1 3 1 2 2 1 4 3 3 2 3 6 8 3 2 1 3 4 2 1 1 4 4 2 1 2 1 2 3 2 3 3 2 4 2 2 2 1 2 3 3 3 5 2 2 2 2 1 2 2 3 3 4 6 7 7 5 6 8 9 6 5 7 8 7
17 17 18 19 19 20 20 19 19 18 17 15 5 2 2 2 1 3 6 2 4 2 2 4 2 2 2 1 1 1 1 2 7 4 5 7 2 1 2 1 0 1 1 0 3 5 4 6 2 4 4 1 6 5 5 3 3 1 2 5 4 3 5 5 7 7 8 9 6 5 6 7 8 8 6 9 9 7 7 8 8 4 5 4 8 8 8
18 17 18 19 19 20 20 20 19 18 16 14 1 4 3 2 3 6 3 1 2 3 4 7 7 5 3 6 6 7 5 5 3 1 1 4 5 0 1 1 1 2 1 0 3 6 5 3 3 2 4 2 3 4 5 3 3 5 5 3 1 1 1 1 5 7 2 5 3 7 8 7 8 9 7 7 7 5 5 6 6 6 6 7 6 8 7
18 18 18 19 19 19 20 20 19 18 15 14 3 4 2 1 2 2 1 1 4 4 2 4 6 3 5 4 3 2 4 3 2 2 3 2 5 6 2 1 1 1 3 1 1 7 4 5 1 3 5 1 3 1 1 5 3 3 3 3 2 3 1 8 5 5 3 6 7 8 9 8 7 6 7 7 7 8 6 5 5 6 6 6 6 7 7
18 18 18 19 19 19 19 19 19 18 15 15 6 2 1 1 1 3 4 4 3 4 5 2 2 5 3 7 6 3 6 5 3 8 7 3 3 7 9 2 5 4 5 2 4 7 5 5 4 2 5 0 2 4 1 2 6 2 4 3 0 2 2 4 3 6 9 11 9 9 10 10 8 6 5 4 6 8 8 7 7 7 8 6 5 4 5
18 18 19 19 19 19 19 19 19 17 16 15 5 2 0 1 1 2 1 1 2 3 5 3 3 5 5 8 3 4 4 4 4 11 11 10 10 6 8 7 8 5 6 6 4 5 4 4 5 3 2 1 3 4 4 5 4 4 3 1 1 5 3 6 10 9 6 5 9 12 10 7 5 4 5 6 6 8 8 7 7 7 7 6 7 5 4
18 18 19 19 19 19 19 19 18 16 15 12 4 2 1 3 3 1 2 1 2 6 3 0 2 3 3 9 8 7 8 4 9 11 10 10 10 9 9 6 5 6 4 5 6 7 5 8 5 1 2 0 5 4 2 2 4 6 5 2 0 4 6 6 7 9 8 7 12 2 6 10 6 7 5 6 6 8 9 7 7 5 5 6 7 7 5
18 19 19 19 19 19 19 18 18 18 18 12 1 1 1 1 1 3 5 1 6 7 4 1 2 6 4 3 6 7 8 8 12 11 11 10 11 10 10 9 7 3 6 6 6 4 5 2 0 3 1 1 5 2 3 4 3 2 2 4 0 1 5 3 4 8 7 9 4 6 7 9 8 7 7 6 5 7 7 5 5 6 5 5 6 6 7
19 19 19 19 19 19 18 17 17 18 16 5 2 5 3 1 1 6 6 5 2 3 4 3 6 0 3 2 5 5 6 7 11 14 13 10 10 9 7 8 7 4 6 4 4 7 1 4 1 1 2 1 4 2 4 1 3 1 2 2 3 4 3 3 3 7 10 4 5 6 8 10 7 9 7 6 5 7 8 6 6 5 4 4 6 4 4
19 20 19 19 18 18 17 16 15 16 11 3 4 3 3 1 2 3 9 5 2 5 4 5 3 2 3 0 1 7 6 6 8 9 8 5 5 4 3 4 6 4 7 6 6 1 2 5 2 2 1 5 4 4 3 3 3 2 3 2 3 6 7 8 9 8 10 10 10 9 9 7 6 8 6 5 5 5 4 4 4 5 4 4 4 4 4
20 20 19 19 18 17 16 15 14 12 5 6 4 1 2 2 3 9 8 4 1 5 5 4 2 3 1 3 3 2 2 2 2 4 4 4 6 6 8 8 3 4 4 5 1 3 4 1 2 3 5 5 5 3 4 5 6 2 1 3 4 7 8 10 10 10 9 10 15 14 10 7 5 7 7 5 5 4 5 5 4 4 5 4 3 3 3
20 20 19 18 17 17 16 15 15 8 2 3 5 4 5 6 10 9 5 3 6 2 3 5 3 1 1 1 4 4 4 4 8 5 4 4 3 4 5 5 3 6 4 7 6 3 1 1 1 6 4 2 4 3 5 4 3 1 3 5 7 8 10 7 7 8 9 5 3 12 12 9 7 3 6 5 4 5 5 5 4 4 4 4 2 1 1
20 19 18 17 16 15 15 15 14 6 1 2 1 2 0 4 10 8 2 5 5 1 3 3 1 3 0 4 4 3 3 2 1 2 4 4 0 4 2 4 6 5 7 5 1 3 3 4 5 0 4 6 2 5 4 2 1 4 5 7 7 9 8 9 8 9 7 5 4 4 6 6 6 6 7 5 5 4 4 4 4 5 2 2 1 1 1
20 19 17 16 14 12 13 8 6 5 1 1 1 4 3 13 12 6 2 1 2 3 3 2 2 3 2 4 3 2 1 4 3 2 4 1 2 2 1 6 5 6 3 2 6 2 3 1 1 5 1 4 4 3 0 3 3 4 5 7 5 8 8 9 5 5 5 6 7 6 7 7 9 6 6 4 4 4 5 3 2 5 4 4 4 1 0
19 17 15 13 11 7 2 2 5 4 3 1 3 6 15 15 8 2 2 3 4 3 3 0 2 2 3 3 1 1 1 3 1 1 0 0 3 3 4 3 6 2 1 5 1 4 3 2 2 1 3 4 0 2 4 5 7 6 8 8 7 9 7 8 7 5 5 6 8 6 7 6 7 6 5 4 4 4 4 4 1 2 2 1 2 1 1
16 15 11 7 3 1 3 1 2 1 0 5 12 17 17 9 2 1 4 4 4 3 4 3 4 2 3 2 1 3 3 3 4 4 6 5 1 2 5 4 3 2 4 6 5 5 2 1 6 3 4 3 1 2 6 7 8 8 7 8 6 5 6 6 7 8 8 7 7 6 5 5 4 4 5 4 5 4 4 5 6 6 6 7 4 3 5
14 6 3 2 2 2 1 1 1 4 9 12 8 2 6 7 1 3 3 3 2 4 4 3 2 1 0 2 2 1 3 1 2 2 1 1 2 2 1 3 0 2 2 1 1 1 1 6 3 2 1 2 2 1 5 5 5 5 6 6 4 6 8 8 8 10 8 6 4 4 3 4 4 4 7 6 5 7 8 6 5 5 4 4 4 4 2
2 1 3 3 3 0 1 2 4 13 5 2 3 0 1 1 1 1 1 1 2 1 2 3 2 2 3 4 1 2 3 3 3 3 3 2 2 0 2 3 2 4 1 2 1 2 2 3 3 4 1 2 2 2 0 1 1 3 6 6 6 7 8 8 8 10 10 8 9 9 9 8 8 7 4 4 4 2 1 2 4 4 4 3 3 3 2
5 4 1 1 1 2 4 6 11 6 2 0 3 2 0 1 2 1 1 1 1 2 0 2 1 3 2 5 5 1 1 2 2 1 2 1 0 3 1 3 1 4 1 1 1 3 4 2 2 2 2 2 4 1 2 4 4 3 4 4 5 7 9 10 7 8 10 7 8 9 8 8 8 8 8 6 6 5 2 2 3 3 4 5 4 5 5
4 1 2 1 2 3 5 6 5 2 2 1 1 2 1 1 1 0 1 2 0 1 0 2 1 1 1 2 2 3 1 3 1 2 4 3 1 2 2 1 1 3 0 1 1 3 2 3 1 2 7 5 5 3 3 3 4 3 4 4 6 7 8 8 6 5 6 5 4 4 4 4 5 7 7 9 8 7 6 6 5 5 4 5 5 4 2
3 1 1 3 3 4 4 2 3 1 1 1 2 0 0 1 0 1 1 2 2 1 0 1 1 3 1 1 1 4 1 0 2 1 2 1 1 2 1 0 2 2 1 2 1 3 3 2 1 2 5 6 4 2 5 5 4 4 5 4 5 6 6 7 7 5 6 10 8 7 5 6 5 5 7 7 7 7 6 5 4 4 6 4 3 4 4
6 3 2 2 1 1 1 1 2 1 1 0 2 1 1 1 0 2 1 1 1 2 1 0 0 0 1 2 2 1 1 1 0 1 3 1 0 2 2 1 1 2 1 1 2 2 1 2 3 7 6 6 6 6 7 7 6 6 6 6 6 7 8 8 8 7 5 6 10 9 8 8 8 6 5 6 6 5 2 3 6 7 4 4 3 3 4
1 0 1 1 1 1 1 2 1 1 1 1 2 2 0 0 1 1 0 1 1 0 1 5 3 5 3 2 2 1 1 1 4 3 2 0 1 1 1 1 0 1 0 2 1 1 2 2 7 6 6 5 4 5 5 4 4 4 4 3 2 4 5 4 4 5 4 2 2 3 5 6 5 4 4 4 8 9 5 3 1 2 3 3 2 2 3
0 1 2 1 1 1 1 2 2 2 3 2 1 1 3 4 3 2 3 2 1 4 1 3 4 5 4 1 2 1 1 1 2 3 1 1 2 1 1 1 1 2 2 1 0 1 1 2 3 2 4 6 7 6 5 5 7 9 8 4 4 5 7 8 6 5 5 6 7 7 6 6 7 6 6 5 5 6 8 5 4 4 4 4 3 3 3
0 1 1 3 2 2 1 0 1 0 2 2 2 6 4 4 5 4 5 1 3 3 7 5 4 6 3 1 3 2 1 2 2 1 0 1 2 0 0 0 2 2 1 1 1 4 5 5 6 9 9 10 8 6 5 5 4 4 10 9 7 7 7 8 7 7 7 7 6 7 7 6 7 7 6 5 5 5 5 5 5 5 4 4 4 4 4
0 1 2 1 2 1 0 1 2 2 2 3 5 6 5 5 7 2 1 1 3 4 5 1 3 3 6 0 1 1 3 2 2 1 1 1 1 0 1 1 1 0 2 1 3 4 4 6 6 8 9 8 7 6 6 5 5 7 8 8 8 7 6 8 8 8 5 6 6 7 6 6 5 5 5 4 2 2 3 4 4 4 6 6 5 2 4
0 1 1 1 3 1 2 4 1 2 1 1 0 3 4 1 1 1 1 2 5 5 7 5 5 2 4 2 4 2 0 1 2 1 1 1 0 2 1 1 0 1 2 3 5 6 4 4 8 9 8 9 10 9 7 7 6 6 8 9 8 8 7 8 7 6 7 8 7 7 6 5 6 6 7 7 5 3 3 3 3 3 2 3 4 3 3
1 1 1 2 1 2 1 0 1 1 1 2 2 0 2 3 3 3 2 0 5 4 2 5 3 4 1 1 2 1 0 1 2 1 0 1 1 2 1 1 0 1 4 5 4 4 7 7 7 9 9 9 8 9 9 9 9 9 10 10 9 9 8 9 8 7 5 6 7 7 6 5 5 5 4 4 5 5 4 3 4 4 3 5 5 4 4
0 1 1 1 0 2 1 0 1 2 3 4 0 2 2 1 2 3 2 4 2 4 2 4 3 5 1 1 1 2 0 0 1 0 2 0 1 1 2 0 3 4 1 3 4 5 4 5 9 9 10 10 9 9 9 7 7 9 7 8 7 7 7 8 7 6 7 7 7 7 6 6 5 6 7 9 6 4 4 3 3 4 3 3 4 4 4
0 0 2 2 3 2 3 1 1 1 4 4 2 4 4 6 5 4 3 5 4 4 4 3 1 2 1 2 2 1 1 1 2 1 2 2 1 3 2 3 4 7 6 6 6 4 5 8 10 10 10 10 10 10 10 10 9 9 8 8 7 6 6 7 9 8 6 6 6 8 7 7 7 6 4 5 6 5 4 2 1 3 3 3 3 4 4
0 0 1 1 0 2 2 1 1 4 6 5 4 4 4 4 4 3 3 6 5 7 4 1 3 2 2 1 2 1 0 2 1 0 1 3 3 2 3 5 3 6 8 5 5 4 5 6 9 14 14 13 12 10 9 8 8 7 7 7 7 7 6 6 7 7 6 6 7 8 6 4 4 4 4 5 5 5 4 4 2 1 2 2 2 1 3
Wind_Direction
340 340 338 336 328 343 351 343 344 350 341 327 358 309 239 204 262 47 143 162 193 34 58 21 91 165 231 293 298 191 255 252 272 298 278 270 213 217 203 206 148 210 137 129 96 117 78 51 149 146 103 114 83 277 253 157 76 77 14 74 222 85 76 63 346 329 304 307 301 352 49 44 63 33 44 52 79 155 167 172 175 128 153 78 33 74 175
338 344 339 337 347 352 347 351 350 348 352 341 333 297 311 121 223 86 152 175 232 60 137 192 226 260 292 211 250 302 255 272 276 250 270 244 303 2 301 338 111 148 124 115 139 169 92 25 67 60 94 75 320 7 41 166 109 119 201 137 212 84 296 113 87 22 338 341 351 355 350 57 69 63 338 323 177 69 131 105 67 99 200 170 131 184 209
356 343 340 339 355 351 344 347 348 343 341 342 335 317 348 297 271 46 119 183 284 334 177 122 166 215 232 84 320 255 264 233 240 246 266 261 251 89 315 172 266 57 77 91 89 23 121 130 356 134 92 110 345 351 28 103 110 1 102 103 104 86 155 88 114 136 131 132 152 183 126 81 337 65 357 20 46 53 65 112 40 110 205 117 121 139 108
355 348 347 352 347 345 344 346 344 336 331 343 314 328 282 331 113 323 127 210 232 256 187 217 166 133 124 57 256 249 261 287 258 206 256 239 297 129 251 314 34 59 85 53 50 45 14 114 188 91 64 358 25 350 1 52 99 86 79 59 76 114 77 53 152 152 174 198 202 266 103 41 56 332 29 359 20 16 105 95 104 172 173 109 237 162 139
354 350 352 355 357 348 346 346 340 328 326 332 341 244 263 296 100 160 189 223 247 253 314 330 31 158 138 145 280 260 255 268 304 172 230 348 347 17 60 346 56 20 81 96 69 15 80 66 86 23 119 244 135 306 45 34 57 99 75 39 82 81 76 15 65 55 75 93 74 49 78 99 57 53 21 22 30 21 69 113 187 155 111 271 146 145 121
352 352 353 354 349 346 346 344 340 331 331 336 229 267 219 132 267 269 230 145 201 142 281 188 104 13 73 236 342 266 294 279 241 323 166 312 11 79 351 28 33 35 116 132 92 65 67 37 99 77 11 93 358 37 3 52 336 66 53 26 101 108 99 99 80 60 57 43 76 88 76 71 74 69 58 47 31 44 75 66 39 76 141 182 145 136 113
354 354 356 351 347 344 343 344 344 339 335 336 165 257 111 169 223 236 303 321 237 148 195 163 155 156 164 275 284 290 258 286 263 225 325 24 360 51 90 349 347 31 354 87 119 146 99 4 333 144 79 75 85 72 11 47 28 67 63 33 93 99 47 68 101 87 51 35 40 66 95 91 64 50 55 57 59 61 68 66 42 87 99 118 125 111 98
354 355 355 352 346 343 347 348 350 350 339 322 227 233 268 42 356 31 358 68 93 56 89 112 117 117 229 187 243 230 253 269 334 12 47 47 8 360 78 36 45 53 57 62 79 249 157 153 134 229 129 56 83 126 176 173 11 50 79 93 339 106 173 185 244 77 45 32 56 66 77 84 74 51 53 59 62 63 60 77 71 79 80 98 109 106 105
354 358 355 352 349 346 349 353 1 351 350 39 320 317 13 322 287 330 333 17 297 56 71 115 120 89 288 192 273 208 277 80 102 70 19 102 72 70 119 112 72 47 68 62 70 22 110 93 122 170 144 121 207 122 235 124 88 18 50 35 8 63 149 162 198 95 71 15 80 90 89 80 72 50 32 26 17 44 11 43 336 111 140 129 117 107 132
354 355 353 351 353 351 352 359 3 0 348 25 342 8 330 312 277 287 290 113 327 105 47 41 76 252 214 181 242 177 287 276 323 69 357 28 50 60 125 102 85 43 61 52 48 314 65 93 103 114 90 96 80 74 91 90 142 124 98 195 70 83 134 130 132 85 95 194 33 24 11 58 48 27 37 49 72 97 81 36 33 40 128 135 147 126 106
353 352 350 354 356 356 355 359 2 5 8 32 7 14 330 11 337 340 4 89 319 176 123 156 138 233 133 210 261 329 329 349 349 112 282 12 352 19 11 81 88 86 64 67 312 149 96 101 89 87 80 72 70 53 62 51 43 102 137 78 48 81 117 108 113 97 147 193 1 327 64 95 143 333 301 302 39 95 73 43 37 33 56 80 92 121 128
351 351 348 354 356 355 357 355 357 5 23 21 4 313 335 337 293 277 49 110 198 327 192 208 195 291 105 169 152 104 84 73 44 90 125 224 270 312 47 59 76 69 253 73 60 86 98 38 63 65 60 64 61 51 47 44 19 24 109 117 116 115 86 106 75 113 145 112 20 64 136 225 345 347 35 96 100 92 87 69 61 69 88 98 98 109 110
350 349 350 351 352 352 354 353 353 356 1 3 50 283 298 2 301 343 345 53 229 276 72 296 259 29 1 113 85 41 65 63 63 75 84 107 31 18 7 85 76 148 68 102 78 51 63 86 57 74 36 19 45 51 39 32 19 17 38 92 124 123 107 128 52 62 74 91 72 144 226 70 90 78 83 111 100 114 90 64 49 54 72 97 106 107 108
347 349 349 349 349 350 349 351 349 349 350 353 113 258 262 265 310 354 64 92 311 239 236 55 28 23 34 62 99 86 58 48 26 42 64 11 75 30 350 50 337 192 136 99 58 75 54 24 53 20 344 11 9 34 328 46 44 29 25 15 51 121 98 100 83 352 127 111 62 84 117 124 133 129 222 201 205 233 129 119 37 36 88 114 119 119 118
350 348 349 347 348 345 347 348 347 345 344 356 265 256 249 219 231 253 66 151 158 298 108 92 270 326 346 20 64 85 61 21 68 27 299 304 60 349 275 322 350 52 95 77 35 40 123 101 49 68 349 49 81 136 341 38 322 37 30 38 45 17 123 214 107 308 111 131 105 109 17 230 198 194 136 139 128 141 161 101 118 55 89 129 130 128 131
349 348 349 348 346 346 346 346 342 344 346 346 294 239 253 230 223 240 266 123 132 47 338 274 219 214 69 35 20 112 137 75 55 18 9 354 343 342 346 350 341 46 45 70 85 89 46 91 169 87 146 176 229 79 338 356 16 357 25 34 66 44 69 100 104 142 95 76 118 157 179 234 83 157 192 262 18 165 137 70 136 106 114 145 137 135 146
349 349 349 347 346 345 345 338 336 342 338 341 320 280 255 170 183 187 169 130 119 125 247 148 122 111 85 17 16 36 55 95 158 99 53 7 321 288 299 347 340 54 72 75 9 65 45 55 100 117 13 159 91 158 124 52 91 6 336 14 41 45 6 37 67 81 86 131 98 165 184 174 159 165 257 264 50 142 95 26 242 151 110 143 147 149 155
348 350 348 345 343 342 341 335 338 338 338 336 311 310 276 175 194 172 75 146 124 7 336 175 135 65 62 172 134 237 61 56 52 23 93 277 350 0 309 3 20 358 89 80 34 68 69 96 119 131 100 248 162 29 136 171 78 271 345 343 13 5 8 43 134 127 87 83 82 35 10 12 233 208 269 282 176 164 110 211 169 142 113 120 142 148 151
345 346 345 343 340 342 337 334 336 336 336 332 319 280 251 192 176 196 184 92 96 66 298 322 159 105 165 108 90 153 195 150 148 95 41 23 27 247 245 205 142 282 6 129 68 89 106 343 46 112 127 318 14 118 245 53 165 339 40 33 44 25 84 1 69 51 81 99 95 174 200 198 149 221 249 254 138 104 228 191 123 132 122 95 132 138 144
340 341 341 340 340 338 334 331 332 332 333 334 334 293 264 162 188 185 168 188 166 77 332 352 23 42 236 88 70 6 105 22 32 121 155 141 278 69 22 26 335 83 13 66 57 213 97 156 177 130 48 116 55 148 69 60 251 78 155 236 109 186 92 109 109 160 53 26 83 46 216 232 36 99 56 3 142 222 119 124 100 111 119 121 111 128 134
338 338 338 338 336 335 331 330 327 327 332 335 347 314 322 224 171 202 194 119 101 60 348 308 74 37 137 63 62 152 126 119 174 108 211 139 186 86 107 194 216 71 179 117 124 136 142 118 205 108 188 117 192 70 150 143 45 277 135 161 105 262 86 126 200 212 130 121 140 197 331 344 317 308 168 224 107 136 137 126 120 116 127 128 121 114 128
337 336 335 333 332 332 330 328 327 328 332 339 357 129 260 279 184 194 175 52 121 139 210 269 226 238 252 192 172 162 139 149 203 151 138 105 338 106 184 126 162 139 189 124 58 60 15 132 83 70 107 73 29 93 151 77 119 273 317 67 87 322 161 207 139 178 141 184 181 23 63 55 30 92 104 102 100 109 113 109 120 134 127 130 121 125 122
336 334 333 331 330 331 329 328 329 330 332 342 340 183 243 334 323 154 145 194 260 248 316 356 347 317 338 317 181 186 34 53 117 100 127 109 57 28 97 88 11 188 90 99 165 148 170 124 154 156 88 70 139 113 40 97 151 308 69 9 115 87 94 98 88 91 94 60 67 102 79 81 83 73 87 105 103 94 107 118 118 96 112 120 121 117 116
334 334 332 330 329 329 328 327 327 329 331 341 18 161 223 194 162 143 166 117 123 78 6 19 53 349 314 318 328 354 30 10 358 304 169 119 108 326 336 255 154 58 38 225 179 130 175 109 163 137 102 209 98 83 119 69 88 137 115 128 119 271 322 37 98 166 85 58 51 85 94 91 87 92 79 79 89 99 104 102 102 113 107 100 98 113 114
333 332 331 328 328 328 327 326 326 330 334 351 350 204 239 338 217 190 68 348 12 83 124 317 22 305 292 276 269 0 30 329 305 76 65 76 131 142 161 172 159 151 175 170 155 73 51 106 96 66 99 229 114 64 255 112 144 221 95 104 117 10 135 84 84 83 85 131 120 94 87 86 91 93 104 99 94 88 82 94 101 103 99 100 109 100 94
332 331 329 327 326 327 326 326 329 332 337 351 29 131 112 23 305 101 97 80 99 107 91 39 335 329 313 25 17 290 293 348 348 55 47 73 94 114 140 134 44 37 94 79 68 90 102 61 88 96 103 338 75 123 132 244 131 122 106 139 216 138 103 109 170 102 90 99 105 108 89 77 73 80 75 91 107 106 101 99 99 98 94 87 69 83 123
330 329 327 326 325 325 326 327 330 330 338 347 4 32 87 41 17 123 310 173 89 8 39 77 278 304 9 49 348 346 352 337 43 64 50 41 64 67 83 87 94 51 68 54 43 105 72 90 84 51 71 142 115 103 130 78 94 93 86 32 74 66 70 122 111 112 153 161 156 155 137 141 118 101 114 111 105 106 105 103 101 104 106 103 97 66 65
331 329 328 325 324 325 326 328 327 330 335 341 347 0 21 80 13 71 107 109 110 160 162 346 4 291 284 41 7 12 0 1 72 72 67 56 53 60 67 72 78 65 23 70 35 36 50 75 82 223 108 6 62 45 19 117 82 56 40 346 126 128 171 155 150 152 174 158 160 91 83 110 128 140 125 116 118 116 117 119 122 115 113 118 111 108 96
330 328 326 323 322 324 324 324 328 333 337 341 351 44 355 268 274 26 58 56 106 93 96 162 294 22 57 277 322 10 5 39 67 69 72 60 54 51 62 63 67 101 84 76 101 97 83 97 175 74 55 202 95 127 33 38 53 76 270 291 343 167 142 158 147 85 75 123 122 123 137 130 146 136 128 128 131 121 118 121 123 135 138 133 123 132 131
326 324 323 321 321 320 322 323 327 334 338 352 58 44 38 330 321 43 21 43 71 118 83 76 73 240 287 340 344 360 3 15 60 61 56 53 47 47 31 55 34 34 80 97 101 79 28 96 351 1 355 6 113 144 81 181 79 324 326 4 71 65 77 83 98 133 142 145 122 110 111 107 117 126 127 129 131 126 132 144 146 134 139 138 126 130 142
324 321 320 319 317 317 318 323 326 335 342 38 67 57 38 53 305 355 7 12 40 103 120 93 106 280 31 345 57 360 349 4 45 62 55 56 64 40 336 63 48 34 58 20 44 77 82 26 28 355 342 43 91 88 145 111 97 46 337 9 78 90 78 73 72 74 106 110 102 94 86 93 105 98 88 108 119 122 117 129 140 135 139 112 116 128 126
322 320 318 317 316 315 317 319 329 339 3 51 88 140 178 194 249 308 331 354 17 57 68 71 18 15 298 323 329 310 347 3 37 23 24 16 31 9 36 51 75 19 98 101 138 65 29 258 92 28 42 338 62 93 63 70 85 111 58 75 82 88 86 86 87 89 90 106 112 98 93 102 123 136 155 169 142 123 129 126 114 109 112 123 132 115 133
320 318 317 314 313 316 317 319 323 339 314 260 241 242 257 268 290 290 314 331 52 69 115 79 121 203 69 271 319 348 19 21 20 25 27 356 37 11 38 4 17 42 22 76 7 81 245 77 348 54 325 16 71 77 74 53 83 135 135 102 87 89 89 85 89 94 100 106 106 131 146 157 167 136 111 114 110 114 121 118 126 106 95 95 86 90 82
321 317 314 312 310 315 319 318 315 308 320 37 61 2 21 344 333 322 9 83 100 112 72 100 59 52 309 314 72 298 38 93 329 23 67 353 334 62 3 34 5 77 349 74 286 58 346 59 46 335 336 16 23 71 56 30 22 100 90 92 98 96 102 102 108 119 128 112 62 71 101 109 104 105 100 99 93 86 98 108 115 109 102 120 198 212 199
319 316 310 307 308 312 314 327 6 49 72 298 269 250 294 336 340 310 293 126 70 348 32 21 106 85 25 2 43 295 8 76 24 341 105 330 33 74 30 54 335 68 326 81 47 64 49 10 210 63 333 307 44 47 242 169 113 103 102 98 104 107 104 109 129 136 107 98 101 105 111 107 102 113 137 131 128 130 118 118 132 136 152 206 225 287 8
316 311 309 306 306 313 332 9 44 23 24 340 256 292 322 321 323 329 9 70 111 152 80 239 72 119 137 115 91 300 22 51 322 349 25 353 10 24 85 104 60 353 256 68 99 351 53 311 62 29 301 59 176 175 170 158 148 149 134 139 151 136 150 154 156 127 97 99 107 108 112 115 125 146 142 147 133 131 134 141 133 137 177 249 263 252 262
316 311 311 312 339 46 20 245 293 96 225 254 279 296 296 299 291 37 5 32 8 86 131 150 76 213 148 181 236 279 69 99 348 27 345 43 124 303 42 41 71 313 39 8 18 37 324 20 96 64 13 99 62 193 147 156 151 149 150 161 166 125 112 119 128 112 95 96 106 117 126 118 104 121 137 155 163 152 134 174 186 175 196 218 220 197 228
313 333 47 35 39 46 357 324 297 297 317 301 320 345 2 33 69 343 358 35 306 55 3 65 100 197 11 81 112 248 77 310 41 106 353 242 65 2 17 81 256 65 53 303 312 172 46 38 46 104 1 268 274 176 159 170 168 151 141 145 150 135 134 131 131 115 106 94 92 94 94 118 147 189 164 181 168 176 197 192 187 204 202 209 211 213 231
48 50 46 39 92 149 187 247 326 325 295 256 40 76 332 8 55 30 321 280 8 39 306 97 161 167 100 64 18 300 129 159 42 33 97 284 106 334 33 84 312 70 356 40 313 56 46 357 8 33 65 318 95 185 95 135 115 162 154 154 143 144 137 148 152 145 154 170 177 177 163 169 179 202 213 172 194 215 225 179 183 197 197 204 220 218 196
23 40 27 24 89 244 270 295 336 336 51 56 333 102 109 331 97 246 317 67 357 304 13 67 193 161 176 153 159 62 354 71 104 121 130 340 2 122 243 91 266 86 32 84 264 22 110 110 307 79 175 260 213 239 148 174 160 186 163 150 148 156 151 155 178 170 166 178 171 177 182 177 171 166 172 177 172 176 195 201 209 185 178 202 198 163 179
7 21 24 43 274 309 299 304 332 50 57 38 5 11 60 358 7 193 67 51 95 216 266 146 66 63 12 62 79 127 282 92 152 131 107 79 255 87 51 76 221 82 334 73 285 67 73 72 23 139 203 222 209 212 160 157 177 193 187 174 163 168 168 161 161 155 135 129 131 155 167 157 165 166 169 170 174 176 181 179 185 188 176 161 170 196 191
264 228 242 284 281 282 316 353 53 44 21 69 122 219 271 240 327 5 104 135 230 230 342 88 75 130 186 189 174 137 63 187 122 98 100 90 329 105 153 274 8 105 166 234 130 64 77 105 133 260 255 231 241 196 159 179 198 184 193 181 172 166 167 159 151 170 166 159 168 166 167 156 165 170 164 162 166 163 162 159 164 182 196 193 152 131 133
308 255 161 282 336 341 47 55 319 102 148 202 47 24 345 79 230 165 253 287 301 94 231 74 177 166 40 68 42 68 169 235 140 1 68 110 294 57 82 21 50 58 203 332 69 55 59 152 208 240 223 198 188 181 190 189 182 189 189 180 179 179 172 170 168 165 177 168 165 163 167 162 174 180 161 150 136 131 146 178 180 180 185 178 184 148 141
223 109 31 338 73 299 73 171 255 47 349 31 112 181 244 10 291 27 51 249 216 151 181 134 202 124 139 324 133 322 13 16 50 83 56 317 81 20 53 71 122 253 337 45 45 132 214 221 205 214 197 176 178 178 176 161 152 146 150 179 177 166 151 122 109 110 110 89 82 109 131 141 131 132 158 177 151 153 172 181 214 174 170 143 158 189 168
69 353 32 22 34 279 75 261 345 120 195 239 131 169 150 172 236 188 183 245 107 199 147 85 121 97 110 277 46 12 88 166 318 98 223 73 55 12 102 177 222 31 100 199 334 332 345 282 259 214 182 173 185 182 177 168 167 168 161 141 150 165 155 156 162 147 152 161 160 148 145 148 139 154 171 179 168 153 149 173 182 154 153 151 158 148 168
69 170 94 81 328 308 105 205 8 357 284 145 185 190 163 226 165 212 246 129 103 119 136 162 113 100 70 282 129 187 1 83 57 24 124 66 99 45 244 277 68 71 19 45 109 206 218 229 196 192 183 177 171 174 164 170 169 154 133 153 176 173 171 156 157 155 158 152 156 148 149 148 147 147 165 177 163 167 171 159 159 147 130 126 163 184 169
89 10 87 107 108 266 85 151 232 206 179 202 216 184 183 194 197 200 187 133 140 174 108 121 109 149 128 253 35 14 34 40 93 282 74 62 134 233 4 117 230 168 144 231 243 251 261 245 215 193 173 160 150 153 156 164 170 176 157 144 148 156 152 142 140 141 150 140 137 137 142 154 153 142 130 129 160 183 181 166 150 144 153 174 192 164 141
204 245 95 140 228 167 159 239 209 295 255 176 242 210 237 238 99 273 237 186 154 140 126 110 92 45 46 315 82 135 236 344 92 315 125 159 53 42 14 37 292 247 184 163 224 220 232 231 185 179 174 161 154 152 159 162 176 168 146 147 150 148 148 138 136 144 146 142 145 148 148 146 140 148 160 166 168 193 190 173 154 156 148 123 125 146 155
162 121 174 200 191 153 199 259 91 250 278 319 298 284 131 130 212 241 251 213 126 145 164 117 172 88 87 291 89 78 43 339 97 233 10 36 97 189 152 208 169 277 255 176 215 207 218 205 175 157 152 153 161 159 166 168 165 163 156 153 161 161 154 151 154 158 154 141 142 145 156 159 148 146 136 130 153 199 200 170 163 185 190 151 150 160 179
11 324 29 95 337 322 251 208 58 306 308 335 2 218 204 168 263 272 190 119 137 120 77 62 51 91 207 94 26 16 313 294 133 50 66 138 192 167 82 303 227 193 250 238 226 240 216 153 136 150 160 159 159 159 157 167 167 164 165 158 149 149 156 148 147 151 154 153 155 155 148 138 140 140 154 177 182 150 142 149 167 176 196 169 148 165 181
356 124 226 168 149 220 154 172 194 244 305 288 245 239 173 193 192 183 201 136 131 71 51 140 191 99 94 33 53 63 237 202 73 131 161 198 189 121 182 205 239 213 230 231 217 214 172 168 156 155 157 162 165 167 165 163 168 167 161 156 159 152 151 152 152 155 158 152 140 127 140 168 178 168 148 118 123 125 121 123 183 190 182 184 178 171 170
57 159 239 288 136 171 161 108 146 204 226 231 220 250 162 206 228 220 175 119 111 120 171 198 93 70 74 147 213 181 88 46 45 63 6 274 156 148 213 197 221 217 217 230 242 209 196 190 171 161 163 165 167 166 163 160 157 153 153 154 152 150 152 155 156 153 146 145 157 160 161 141 112 112 115 111 105 114 140 188 220 143 144 158 178 156 124